Wind_Speed
14 14 14 14 14 12 11 9 8 8 8 8 8 8 9 9 10 10 11 12 13 13 14 15 16 17 17 18 19 20 20 20 20 20 20 21 21 21 22 22 22 21 21 21 21 21 21 22 21 21 20 19 17 15 14 14 13 14 14 16 17 18 18 18 19 19 19 20 20 20 21 23 22 19 18 17 17 19 21 21 23 24 23 24 25 27 28 28
15 15 15 15 15 14 13 11 10 9 8 8 9 8 8 9 9 9 10 11 11 12 13 14 15 16 17 18 19 20 20 20 20 20 21 21 21 21 21 22 22 22 22 22 22 22 22 22 23 23 23 22 21 19 17 15 14 14 15 16 16 17 17 18 18 19 19 20 20 20 21 22 22 19 18 18 17 19 21 21 22 23 23 25 27 28 29 29
17 17 17 17 17 16 15 14 12 11 9 9 9 9 8 9 9 9 9 10 10 11 12 13 14 15 16 17 19 19 20 20 20 20 20 20 20 21 21 22 22 23 23 23 23 22 22 22 22 23 23 23 23 22 19 17 17 16 16 17 17 17 16 17 18 18 20 21 21 21 21 22 22 20 19 18 18 19 21 22 23 23 24 26 27 29 29 29
18 18 18 18 18 17 17 16 14 12 11 10 9 9 9 9 9 9 9 9 10 10 11 12 14 15 16 17 18 19 20 20 20 20 19 19 20 20 21 21 22 22 23 23 22 22 22 23 23 23 23 23 23 23 21 20 19 18 18 18 18 18 17 17 18 19 20 21 21 21 21 21 22 22 20 19 19 20 22 23 24 25 25 26 28 29 29 29
20 20 20 20 20 19 18 17 16 14 13 11 11 10 10 10 9 9 9 10 9 10 11 12 13 15 16 17 18 19 20 20 19 19 19 19 19 20 20 20 21 22 22 23 22 22 22 23 24 25 25 24 23 23 22 21 21 20 20 19 19 19 19 19 19 20 21 21 22 22 22 22 23 24 23 21 21 22 23 24 24 25 26 27 28 29 29 29
22 21 21 21 21 20 20 18 17 16 14 13 12 11 11 10 10 10 10 10 10 10 11 12 13 15 16 17 18 19 20 19 18 18 18 18 19 19 20 20 21 21 22 23 23 22 22 22 23 25 25 24 23 22 22 21 21 20 21 21 20 20 20 20 21 22 23 23 24 24 24 24 24 26 25 23 23 23 24 24 24 25 26 27 29 30 30 30
23 23 23 23 22 22 21 20 19 17 16 15 14 13 12 12 11 11 10 10 11 11 11 12 13 15 16 17 17 18 19 19 18 18 18 18 19 19 20 20 21 21 22 24 23 22 22 22 23 24 25 25 23 22 21 21 21 20 20 21 21 21 21 21 22 24 25 25 26 26 26 26 26 27 26 24 24 23 23 23 24 25 27 29 30 31 32 32
24 24 24 24 24 23 22 21 20 18 17 16 15 15 14 13 12 12 12 11 12 12 12 13 14 15 16 17 17 18 18 18 18 18 18 18 19 19 20 20 21 22 23 23 22 21 21 21 22 23 24 25 24 23 23 22 21 20 20 21 22 22 22 22 22 24 25 26 26 27 26 26 26 26 25 24 23 22 22 23 24 27 28 30 32 32 33 34
25 25 26 25 25 24 23 22 21 20 19 17 17 16 15 15 14 13 13 13 13 13 13 13 14 15 16 16 17 17 18 18 18 18 19 19 19 19 19 20 21 22 23 23 22 21 20 21 22 23 24 25 24 24 24 23 22 22 21 22 22 23 23 23 23 23 24 25 26 26 26 26 26 26 25 25 24 24 24 25 26 28 30 31 32 33 34 35
26 27 27 27 26 26 25 24 23 21 20 19 18 18 17 16 15 15 14 14 14 14 14 14 15 16 16 16 17 18 18 18 18 19 19 19 19 20 20 20 21 22 23 23 22 21 21 21 22 22 24 24 25 25 24 24 24 23 22 21 21 22 23 23 24 24 25 26 27 27 27 27 27 27 28 28 27 27 27 27 29 30 31 32 33 34 35 36
27 28 28 28 28 27 26 25 24 23 22 21 20 19 18 18 17 16 16 16 16 15 15 15 16 16 16 17 17 18 19 18 18 19 19 19 20 20 20 20 21 22 23 23 23 22 21 21 21 22 23 24 25 25 25 25 25 25 23 22 22 22 23 23 24 25 26 28 29 29 29 28 29 30 31 31 31 31 30 31 31 32 32 33 33 34 36 37
29 29 29 29 28 28 27 26 25 24 23 22 21 20 20 19 19 18 18 17 17 17 17 17 17 17 17 18 18 18 19 18 19 19 19 19 20 20 20 20 21 22 23 23 23 23 22 22 22 22 23 24 24 26 26 26 26 26 25 24 23 23 24 24 25 26 27 29 30 32 30 29 31 32 33 34 34 33 33 32 33 33 33 32 33 35 36 36
29 30 30 30 29 29 28 27 26 25 24 24 23 22 22 21 21 20 20 19 19 19 19 18 18 18 18 18 19 20 19 19 20 20 20 20 21 20 20 21 21 22 23 23 23 24 24 24 23 22 23 24 25 25 26 27 27 27 26 26 24 24 25 25 26 26 28 30 31 33 31 28 31 34 34 35 34 33 33 33 33 32 32 32 33 34 35 36
30 30 30 30 30 29 29 28 27 27 26 25 25 24 24 23 23 23 22 21 21 20 20 20 19 19 19 19 20 21 20 21 21 20 21 21 22 21 20 21 21 22 23 23 23 25 25 25 24 23 23 24 25 26 27 28 28 27 27 28 27 26 26 27 28 28 29 30 31 33 32 28 32 34 35 35 35 35 34 34 33 32 32 33 33 34 35 37
31 31 31 31 31 30 30 29 29 28 27 26 26 26 25 25 25 25 24 23 23 23 22 22 21 20 20 20 21 21 22 22 21 21 22 22 23 23 21 22 22 22 24 23 24 25 26 26 25 25 25 24 25 25 27 28 28 28 28 29 29 28 28 29 29 30 30 31 31 33 33 30 32 34 35 36 35 35 35 34 34 33 33 34 34 35 37 39
32 32 32 32 32 32 31 31 30 29 28 28 28 28 27 27 27 27 26 26 25 25 24 23 23 22 21 21 22 23 24 23 22 23 23 23 24 24 23 23 23 24 24 23 24 25 26 26 26 26 26 26 26 26 27 27 28 29 29 29 30 30 31 31 32 32 32 32 32 34 35 33 34 35 35 35 35 35 35 34 34 34 35 35 36 38 39 41
34 33 33 33 33 33 33 32 31 30 30 29 29 29 29 28 28 29 28 28 27 27 26 25 25 24 23 23 23 24 25 24 24 24 23 25 25 25 25 24 24 25 25 24 24 25 27 27 27 27 27 27 28 28 28 28 28 29 29 29 30 31 32 34 35 36 36 35 34 36 38 36 37 39 38 37 37 37 36 36 36 36 36 37 38 40 42 43
35 35 34 34 34 34 34 34 32 31 31 31 31 30 31 30 30 30 29 29 29 28 28 27 27 26 24 25 25 25 26 25 25 25 25 26 26 26 26 26 26 26 25 25 25 25 27 28 29 28 28 29 29 30 30 29 29 30 30 30 31 31 32 35 37 39 40 40 38 40 42 40 40 41 41 41 40 40 39 39 38 38 38 39 40 42 43 44
37 37 36 36 36 35 35 35 34 33 32 32 32 32 32 31 31 31 30 30 30 30 30 29 29 28 26 26 27 27 27 26 26 26 26 27 27 27 27 27 27 28 26 25 26 26 27 29 29 29 30 30 30 31 31 32 32 32 33 32 33 33 32 34 38 40 41 41 40 43 44 42 42 43 43 42 42 41 41 40 40 40 41 42 43 43 43 43
38 38 38 38 37 37 36 36 36 35 34 33 33 33 33 33 33 32 31 31 32 31 31 30 30 30 29 28 28 29 28 27 27 27 27 28 28 28 29 29 28 29 27 26 27 27 28 29 29 29 30 31 31 32 33 33 34 35 35 35 36 37 36 36 39 41 42 42 41 43 45 43 43 43 43 42 41 40 40 41 41 42 43 43 44 43 43 43
38 40 40 40 39 39 38 38 37 37 36 35 34 34 34 34 34 34 33 32 33 33 32 32 32 31 30 30 30 30 29 29 29 28 29 29 30 30 30 30 29 29 28 27 28 28 29 31 31 31 32 32 32 33 34 35 36 37 38 38 38 39 40 39 41 43 44 45 43 44 46 44 43 42 43 43 42 42 42 42 42 42 43 43 43 42 43 43
39 40 41 42 41 41 40 39 39 39 38 37 37 36 36 36 36 36 35 33 33 34 34 34 34 33 32 32 32 32 31 30 30 30 30 31 31 32 32 31 30 29 28 28 29 28 30 33 33 32 33 33 34 35 36 36 37 38 40 40 40 41 43 42 43 45 46 47 46 45 47 46 44 43 43 44 45 45 45 44 43 43 43 42 42 43 43 43
39 40 41 43 43 43 42 41 40 41 40 40 39 39 39 38 38 38 39 37 35 34 34 34 34 33 33 33 33 33 32 32 32 31 32 32 32 33 33 32 31 30 30 29 30 29 31 34 34 34 34 34 35 37 38 38 38 39 40 42 42 42 44 45 46 48 49 50 50 49 48 47 46 45 45 47 48 47 47 46 45 44 43 42 43 44 44 46
39 40 41 42 43 44 44 43 43 43 42 42 41 41 41 41 41 41 41 41 38 35 35 35 35 34 33 34 34 34 34 33 33 32 33 33 33 34 34 33 32 32 31 31 31 30 32 35 36 35 35 36 37 38 39 40 39 39 41 43 43 44 45 47 49 50 52 53 53 52 52 50 47 44 45 47 47 47 46 46 45 44 43 44 45 46 47 49
40 40 41 42 43 44 44 45 45 45 45 44 43 44 44 44 44 44 44 46 43 38 37 38 36 35 34 35 35 35 35 34 34 34 34 35 35 35 35 35 34 34 34 33 32 31 33 36 37 37 37 37 38 39 41 42 42 41 41 43 45 45 46 48 50 52 54 54 54 53 55 55 51 45 44 45 45 45 45 44 44 44 45 47 48 49 50 51
42 41 42 42 43 44 45 46 46 47 47 46 46 46 46 46 47 47 48 50 48 42 40 40 38 36 36 35 35 36 36 35 35 36 36 36 36 37 36 36 36 37 36 36 35 33 35 37 37 38 38 38 40 41 43 44 45 44 43 44 46 47 48 49 50 53 55 56 54 53 57 60 56 49 45 45 46 44 44 43 44 46 47 49 50 50 50 52
45 44 43 43 44 45 46 46 47 48 48 48 49 48 49 49 49 50 50 53 53 46 42 41 39 38 37 36 37 38 37 37 38 38 37 38 37 37 38 38 38 38 38 38 37 35 37 39 39 40 40 40 42 43 44 45 46 46 45 47 47 48 50 50 52 54 56 58 55 52 58 63 60 54 47 46 47 46 44 44 45 47 49 50 50 50 51 53
48 47 46 46 46 46 47 47 48 49 49 50 50 50 51 51 51 52 52 56 57 49 44 42 41 40 39 39 40 40 40 39 39 39 38 38 38 39 39 39 40 40 40 40 40 38 39 41 41 41 41 41 43 45 46 47 47 47 47 48 49 51 51 52 54 55 57 61 57 54 59 63 62 56 49 47 48 47 46 47 48 48 49 50 51 51 53 55
49 49 49 49 49 49 49 49 49 50 50 51 51 52 52 52 53 54 55 59 58 52 46 44 43 42 42 42 42 42 42 41 40 40 40 40 41 41 41 40 41 42 42 42 41 40 42 42 43 44 43 43 45 47 48 48 48 48 48 50 51 52 53 54 56 57 59 62 59 57 60 64 63 55 50 49 49 48 49 49 48 48 50 52 53 54 56 56
50 50 51 51 51 52 52 52 51 51 52 52 53 53 54 55 55 56 59 60 57 53 50 47 46 45 45 45 45 44 43 42 41 41 42 43 43 43 42 42 43 44 43 43 42 42 43 44 44 45 45 46 47 48 49 50 50 49 50 51 53 54 54 56 58 58 61 62 60 61 63 65 64 56 52 51 48 48 50 49 48 50 53 55 56 57 58 58
50 50 51 52 52 53 53 53 54 53 54 54 55 55 56 57 58 60 62 59 55 55 53 50 48 47 47 47 46 46 45 44 44 44 45 45 45 44 43 44 45 45 45 44 43 44 45 46 46 46 46 47 49 50 52 52 52 51 52 53 55 56 57 59 60 60 63 62 61 64 65 66 65 60 56 52 48 50 51 49 50 54 57 58 58 59 59 60
51 51 52 52 52 53 53 54 54 54 55 56 56 57 58 60 63 63 60 56 55 56 54 51 51 49 49 49 49 48 47 46 46 46 46 46 47 46 44 44 45 46 47 45 44 46 46 47 48 47 48 49 50 52 53 54 53 53 53 55 56 58 59 61 62 63 64 64 64 67 68 67 65 61 57 53 50 51 52 52 54 58 59 59 60 61 61 62
52 52 53 53 53 53 53 54 55 55 56 57 58 59 60 64 67 63 58 55 55 56 55 54 54 53 53 53 52 51 49 48 48 48 48 48 48 47 46 45 44 46 47 47 48 48 49 49 48 47 48 50 51 53 55 55 55 55 55 55 56 58 61 63 64 65 66 65 66 69 70 67 63 59 56 52 50 51 53 55 57 58 58 59 61 62 62 63
54 55 56 55 54 54 55 55 56 56 56 58 59 61 64 68 67 62 57 55 55 56 56 56 56 56 56 55 54 53 51 51 51 50 49 50 50 49 47 45 44 45 46 47 49 51 53 53 50 50 50 51 52 54 55 55 56 56 55 56 57 59 62 64 65 67 69 68 66 68 70 67 63 60 56 52 51 52 54 56 56 56 57 60 62 62 63 64
57 58 58 57 56 56 57 57 58 58 58 59 61 64 68 69 65 61 58 56 55 55 56 57 57 58 58 57 56 55 53 53 53 52 52 52 52 51 49 46 45 46 46 47 49 52 55 56 54 54 53 53 55 56 57 57 57 58 58 59 59 60 63 65 67 68 71 72 68 67 69 66 63 61 56 53 52 52 54 54 53 55 58 61 61 62 64 66
60 60 61 59 59 59 59 60 60 60 61 62 64 69 70 67 64 61 59 57 56 56 57 58 59 60 60 59 59 57 55 54 55 55 55 54 54 53 51 48 48 48 47 48 50 52 56 57 57 57 56 56 57 58 59 58 59 60 61 60 61 63 65 66 69 70 72 75 71 68 69 66 63 60 55 54 54 53 54 53 53 57 61 62 63 64 66 67
62 62 62 61 61 61 62 62 62 62 63 65 69 72 71 68 65 63 61 59 58 58 58 60 61 62 62 62 62 60 58 57 57 57 57 57 57 55 52 51 50 50 49 50 51 53 56 57 58 59 59 59 59 60 61 59 60 62 62 62 63 65 66 67 70 71 73 77 75 71 70 66 62 60 56 55 55 53 54 55 56 61 63 63 64 66 67 66
63 64 64 63 63 63 63 63 64 64 65 68 73 74 72 70 66 62 60 60 60 60 61 62 63 63 63 64 64 62 61 60 59 59 59 58 59 58 55 54 53 52 51 52 53 54 56 58 59 60 61 61 61 62 61 61 64 64 63 63 64 66 66 68 71 71 74 79 79 75 71 64 61 60 57 55 54 54 55 56 60 63 64 65 66 67 67 65
66 67 66 64 64 65 65 65 66 66 69 73 75 75 73 71 66 61 59 60 61 63 64 64 63 64 65 65 64 64 63 62 61 60 60 61 62 60 58 57 57 55 54 54 55 56 57 59 61 61 62 63 63 62 62 63 65 65 64 65 66 66 67 68 71 72 74 78 81 80 73 63 60 59 55 54 54 54 56 58 62 65 65 66 67 67 66 63
69 70 69 66 66 67 66 67 68 70 74 76 75 75 74 71 67 63 61 61 62 63 65 66 65 65 66 66 66 65 64 63 63 63 63 64 64 62 60 59 58 58 57 57 58 59 60 62 63 64 65 65 64 64 64 66 65 65 65 66 66 66 67 70 72 73 75 77 81 81 75 66 61 58 54 54 54 54 56 60 63 66 66 66 67 67 64 61
74 74 72 69 70 70 69 71 72 73 76 77 76 75 74 72 69 67 65 63 64 65 66 66 66 66 66 66 67 65 64 65 65 65 66 65 64 63 62 61 60 60 59 59 60 61 63 65 66 67 67 67 66 66 67 67 66 65 65 65 66 66 68 71 74 76 76 77 79 78 75 69 62 56 55 55 55 54 57 61 64 66 67 67 67 65 62 60
77 77 74 73 74 74 74 75 74 76 79 79 77 75 74 73 72 70 68 67 66 66 67 67 67 67 67 67 66 65 66 67 67 67 67 65 63 63 63 62 62 61 61 62 63 63 65 67 68 69 68 68 68 67 68 68 66 66 66 66 66 67 69 72 76 78 77 77 76 73 72 69 60 56 59 58 56 56 58 62 65 66 67 67 65 62 59 58
79 78 77 77 77 77 78 79 78 80 80 79 77 75 75 75 74 72 71 70 69 68 68 69 68 68 68 67 67 67 68 69 68 68 67 64 63 64 64 63 62 63 64 64 64 65 66 68 70 70 70 69 68 68 69 67 65 66 67 67 68 68 70 73 76 78 76 74 71 69 71 67 59 58 63 61 58 59 61 64 66 66 67 65 61 58 57 57
79 79 79 80 81 82 82 81 80 81 80 78 78 77 76 76 75 73 72 72 71 70 70 70 69 69 69 69 69 70 70 71 69 67 67 66 66 65 65 64 64 64 65 65 65 66 68 69 70 72 72 70 69 69 69 67 66 68 68 68 69 70 72 74 75 77 75 68 64 67 72 65 59 62 65 62 61 62 63 66 66 66 65 61 57 57 56 55
82 82 82 82 84 85 85 83 82 82 81 80 80 79 78 78 75 73 73 73 73 72 73 72 71 70 70 71 72 71 71 70 69 68 67 68 68 66 65 65 65 65 66 66 67 68 69 70 71 72 72 71 70 69 68 67 68 70 70 69 69 69 71 74 74 74 70 63 60 66 69 63 61 64 64 61 63 64 64 66 66 64 61 57 55 55 54 53
85 87 87 87 89 89 87 85 84 84 83 83 83 81 79 78 75 73 75 76 75 75 74 72 71 72 72 72 72 71 70 69 69 69 68 68 67 66 65 66 66 67 67 68 69 70 71 72 71 72 73 72 70 69 68 69 70 70 69 66 65 66 68 71 70 67 63 62 62 63 64 64 63 64 63 62 63 64 65 66 65 61 57 54 54 54 52 51
83 84 83 86 91 92 90 88 88 87 85 83 82 81 80 79 78 77 79 79 77 76 75 74 74 74 73 72 72 71 69 68 69 70 68 67 66 66 66 66 67 69 70 70 71 72 73 73 72 73 74 73 71 71 71 70 68 66 62 60 63 66 66 65 64 60 57 62 66 62 60 65 66 64 63 61 61 64 65 64 60 57 54 54 53 52 50 50
82 80 77 78 83 86 86 86 88 89 87 85 84 83 82 82 81 82 82 80 78 77 76 76 74 73 73 72 73 72 70 70 71 71 69 67 66 67 67 68 69 71 71 71 72 73 75 75 72 73 75 74 73 71 70 67 65 61 56 56 63 65 63 62 60 56 55 62 68 63 59 65 68 64 60 60 61 64 64 60 56 53 53 53 51 50 50 53
81 80 79 79 79 78 77 76 79 83 85 86 87 86 85 84 84 84 83 82 81 78 77 77 74 73 73 73 73 74 73 73 74 71 69 68 68 69 70 71 72 72 71 72 73 74 75 76 74 74 77 74 68 64 63 63 63 61 55 57 62 63 61 61 58 55 56 63 66 63 62 68 68 59 56 60 62 62 59 55 53 52 52 51 49 51 54 57
81 79 78 79 79 78 76 75 76 78 79 81 85 83 81 83 84 84 85 85 83 80 79 78 75 74 75 76 77 78 75 75 76 73 71 71 71 72 74 74 74 74 74 74 74 75 77 77 75 74 74 68 58 56 60 62 63 62 57 56 60 60 58 59 57 56 58 63 63 64 70 72 63 54 57 61 60 57 55 52 51 51 50 50 52 55 57 59
80 78 77 79 80 80 80 79 79 80 80 81 81 78 77 80 78 79 83 83 81 81 81 80 77 77 79 80 79 75 72 75 78 75 74 75 75 76 77 77 76 75 74 72 73 75 76 75 70 67 68 61 52 55 60 61 64 64 56 53 55 56 56 57 57 57 59 62 64 67 71 68 60 57 60 59 55 53 51 49 49 49 50 53 55 57 58 60
81 83 83 84 84 83 82 82 83 85 83 80 79 77 77 76 72 73 78 78 76 76 77 75 73 75 78 77 72 66 66 72 76 76 76 78 78 77 77 76 74 71 68 67 68 67 67 66 62 60 62 58 53 57 60 61 65 62 53 51 53 55 56 57 57 58 59 62 65 66 65 63 60 59 58 56 53 49 45 45 48 50 53 55 56 58 60 62
Wind_Direction
238 243 247 250 253 257 263 269 278 288 299 308 317 326 333 339 347 355 359 1 5 9 10 10 10 11 13 13 14 14 15 17 19 21 23 25 27 28 28 27 25 22 22 22 21 18 14 9 3 359 356 352 347 345 339 329 321 311 301 294 294 295 292 291 290 290 289 288 287 289 291 290 295 303 307 308 310 305 301 302 305 309 312 312 311 309 308 307
236 240 244 247 249 253 258 263 270 279 289 299 307 316 324 331 337 345 352 356 359 3 7 8 8 8 9 10 9 9 9 10 12 15 17 19 20 22 23 22 19 16 15 15 16 15 13 10 4 358 355 350 345 345 344 337 330 322 311 305 304 303 298 295 294 293 291 290 290 292 292 292 298 304 305 306 309 304 301 303 306 309 310 310 309 307 306 306
235 238 242 245 248 250 254 258 263 270 279 288 297 305 312 320 326 333 342 349 352 356 0 3 4 3 4 5 4 4 5 5 7 10 11 12 14 15 17 18 16 12 10 10 10 9 8 8 5 360 355 349 344 344 345 340 336 329 319 316 314 310 306 301 300 298 295 294 295 295 296 299 303 306 305 307 309 307 306 308 308 308 309 309 307 305 305 306
234 236 239 243 246 248 250 254 259 264 270 278 286 294 301 308 315 322 330 338 344 348 352 356 358 358 359 360 0 0 0 1 3 6 6 7 8 10 13 14 12 10 8 7 6 5 4 3 2 359 355 351 345 345 346 343 340 333 325 322 319 315 312 308 304 300 298 299 299 300 301 303 305 306 306 309 311 310 309 308 308 308 308 306 305 305 306 308
233 234 237 240 243 246 249 252 256 260 264 270 277 283 289 297 304 312 320 327 334 339 343 347 351 353 354 356 357 357 356 357 359 1 1 2 2 4 7 8 8 8 5 4 3 4 3 0 358 356 354 351 347 346 348 347 344 338 330 327 323 318 316 312 308 304 302 303 303 304 304 304 305 305 308 312 313 310 308 308 308 308 307 305 306 306 307 308
232 233 235 238 241 244 247 250 253 257 260 264 269 274 280 287 294 302 309 316 322 329 334 339 343 346 349 352 353 353 354 355 356 356 356 357 358 359 1 2 4 4 2 2 2 2 1 359 356 353 351 348 347 346 347 348 346 342 336 331 327 322 318 315 311 308 307 307 305 305 307 307 306 306 309 312 309 307 307 308 308 307 306 307 306 305 306 307
231 232 234 236 239 242 245 247 251 254 258 261 264 269 273 279 286 292 299 306 311 318 324 329 335 339 343 346 349 350 351 352 352 352 352 353 354 355 356 357 359 359 359 1 0 359 357 355 352 351 349 346 345 344 344 346 345 344 340 336 332 328 324 320 314 312 311 311 309 308 308 308 306 306 309 309 306 306 308 308 307 306 306 305 304 304 305 306
232 232 233 235 237 240 243 245 248 251 255 259 261 265 269 273 279 285 291 296 302 308 314 320 325 331 336 339 343 346 347 348 348 347 347 348 349 350 352 352 354 355 356 358 357 355 351 349 348 347 346 344 343 341 342 344 344 343 341 337 335 333 330 325 320 317 316 314 312 310 310 309 308 309 310 307 306 308 308 307 306 305 304 304 303 305 306 306
233 232 232 234 236 239 241 243 246 248 251 255 259 261 264 268 274 279 284 289 294 300 305 311 316 322 328 332 336 340 342 342 342 343 342 343 345 346 347 348 349 351 352 353 353 351 347 345 344 343 342 342 341 339 339 342 344 343 341 337 333 331 330 328 326 323 319 316 313 311 311 311 311 310 308 306 307 307 307 306 305 304 304 304 305 306 306 306
234 233 233 234 236 238 240 242 244 246 249 251 255 259 261 264 269 274 279 283 288 292 297 303 307 314 320 325 329 332 336 335 336 338 337 338 340 341 343 344 345 345 347 347 347 347 344 342 340 338 338 339 338 337 337 340 343 344 342 340 334 330 327 326 325 323 319 315 312 311 312 312 311 309 307 307 307 307 308 308 306 306 306 307 307 306 305 305
233 234 234 234 236 238 239 241 243 245 247 249 251 256 260 262 266 270 274 279 283 287 291 296 301 306 311 317 320 324 328 329 330 332 332 333 335 337 339 339 340 340 342 343 341 341 340 337 335 334 333 334 335 335 335 337 340 341 342 342 339 334 330 326 323 319 316 313 311 311 312 313 311 308 307 307 307 308 310 309 308 307 307 307 306 304 303 304
233 235 236 236 237 238 240 241 243 245 246 248 250 253 258 261 264 267 270 274 278 281 285 289 294 299 304 309 312 316 321 322 324 325 326 327 329 332 333 334 335 336 338 337 335 335 335 332 330 330 329 330 332 333 333 333 335 336 338 339 339 337 334 330 326 321 317 314 313 312 313 315 310 308 307 307 309 311 312 311 309 308 308 306 304 302 302 302
234 236 237 238 239 240 241 242 243 245 247 248 250 252 255 259 262 265 268 270 273 277 280 284 288 292 297 302 305 310 314 316 318 319 320 322 324 326 328 330 330 331 334 332 331 330 329 329 327 327 326 326 329 330 329 329 330 331 334 334 335 334 332 331 327 323 320 318 318 314 315 318 311 308 308 309 311 313 313 313 312 310 307 304 302 302 302 303
235 237 239 240 241 242 243 244 245 246 247 249 251 252 254 258 261 263 266 268 271 273 276 279 283 287 292 296 299 303 308 311 312 313 315 316 319 321 323 325 325 326 329 328 327 326 325 325 324 323 322 323 325 326 325 325 326 328 328 327 327 327 327 328 326 324 323 321 321 316 317 321 314 310 310 310 312 312 312 313 312 310 307 305 305 306 307 307
237 238 240 242 243 245 245 246 247 248 249 250 252 253 254 258 260 262 264 267 269 272 274 276 279 283 288 291 293 297 302 305 307 308 311 311 314 317 318 320 320 321 325 324 323 322 321 321 321 320 320 321 321 321 321 322 324 325 325 323 322 323 324 325 324 324 323 322 321 316 316 319 313 310 310 310 312 312 312 311 310 310 308 308 310 310 309 309
238 239 241 243 244 246 247 248 249 250 251 252 253 255 255 257 260 262 264 266 269 271 273 275 277 281 284 286 289 293 296 300 302 304 306 307 310 313 314 316 316 318 320 319 318 319 317 317 318 318 318 318 316 316 317 319 321 321 321 321 321 322 322 323 323 322 322 323 322 317 316 318 313 311 311 312 313 313 311 310 310 310 309 310 310 309 308 308
240 241 243 244 246 247 249 250 250 252 253 253 255 256 256 257 260 262 264 267 269 271 273 275 277 280 282 284 286 289 292 296 298 300 302 303 307 310 311 313 313 315 316 315 315 316 315 315 317 317 315 314 313 313 314 315 317 317 318 319 321 322 321 322 322 322 322 323 324 320 317 319 317 315 315 315 315 314 312 311 310 309 309 309 308 307 307 308
243 243 245 247 248 249 250 252 253 253 254 255 256 258 259 259 259 262 265 267 269 271 273 275 277 280 281 284 286 287 290 292 294 297 299 301 304 307 309 310 311 312 312 312 312 313 313 313 315 314 313 312 312 312 312 312 313 313 314 317 319 321 322 322 322 322 322 322 324 320 318 319 318 317 318 317 316 315 313 311 310 309 308 308 307 306 307 308
245 245 246 248 250 251 252 254 255 255 256 257 258 259 260 261 262 263 265 267 269 272 273 275 278 280 281 284 286 286 288 289 290 293 297 299 302 304 306 307 308 309 308 307 309 311 311 311 312 312 310 311 311 310 310 310 310 310 312 315 317 319 322 322 321 321 319 319 322 319 316 317 317 316 316 315 314 314 311 310 309 308 308 308 307 307 308 309
247 247 247 249 251 253 254 256 257 257 257 259 261 261 262 263 264 264 266 268 270 271 273 275 277 279 282 283 285 286 287 288 290 292 295 297 300 302 303 304 305 306 304 304 306 309 310 309 310 310 309 309 309 309 309 309 309 309 310 313 316 317 320 321 319 318 317 317 319 316 313 314 314 313 312 311 312 311 310 309 308 309 309 309 309 309 309 309
249 249 249 249 250 252 255 257 258 259 259 260 262 263 264 265 265 266 266 269 271 272 275 277 278 280 282 284 286 287 288 289 291 292 293 296 298 299 300 300 301 301 301 302 304 307 309 308 310 310 309 310 309 309 308 308 309 309 310 313 315 316 317 319 317 317 316 316 317 315 312 313 314 313 313 313 314 313 312 310 310 311 311 311 310 309 308 309
252 252 251 251 251 252 254 257 259 260 261 261 263 264 265 266 266 266 266 267 270 273 276 277 280 281 284 286 287 288 289 289 289 290 292 293 294 296 297 298 298 298 298 300 302 306 307 307 309 310 309 310 310 309 308 308 309 310 311 312 314 314 314 316 316 315 315 315 315 314 311 312 313 315 317 317 316 316 313 312 312 313 311 310 308 307 307 309
255 255 255 254 254 254 255 257 260 261 262 263 264 265 266 267 267 268 268 266 266 269 273 275 277 280 283 284 285 286 287 286 286 287 289 289 291 294 294 296 296 296 296 297 299 303 304 304 306 308 309 309 310 309 308 308 309 310 310 311 312 313 313 315 315 314 315 315 315 315 311 310 311 315 320 320 318 316 312 311 311 310 309 307 305 305 307 307
257 257 257 257 257 257 257 258 260 262 263 264 265 266 267 268 268 269 269 268 266 267 270 273 275 278 281 282 283 284 284 283 285 285 286 288 291 292 293 294 295 295 295 295 297 299 301 302 304 306 308 309 309 309 308 307 309 310 310 310 312 313 313 314 314 313 314 314 316 317 312 307 308 314 320 320 317 314 310 309 309 307 306 305 305 306 306 306
258 259 259 259 259 259 259 259 261 263 264 265 267 267 268 269 270 270 270 270 267 266 268 271 273 276 279 280 282 282 282 283 284 285 286 289 290 292 293 294 294 294 294 294 294 296 298 299 302 304 306 309 309 308 307 308 309 310 310 311 312 313 312 312 312 312 312 313 316 319 313 307 309 314 318 320 318 314 310 309 308 306 306 306 307 308 307 307
256 258 259 260 260 260 260 260 261 263 264 266 267 268 269 269 270 271 271 272 269 267 268 270 273 276 277 279 280 280 281 282 283 285 287 289 290 292 292 293 295 294 294 293 293 295 296 297 299 302 304 307 307 307 308 308 309 310 312 312 312 312 311 311 311 311 312 311 315 321 314 308 311 316 320 322 320 316 313 312 309 307 307 307 308 308 307 307
255 256 258 259 260 261 262 262 263 263 265 266 267 268 269 270 271 272 272 273 271 268 269 272 275 277 278 279 279 279 280 282 284 285 288 289 290 291 292 294 294 294 293 293 293 295 295 295 298 300 302 305 305 306 307 307 308 310 311 312 311 311 310 311 310 310 311 311 315 320 314 310 311 315 322 323 319 317 317 314 310 308 308 308 307 307 308 308
257 257 257 258 259 261 262 263 264 265 266 267 268 269 270 271 272 272 273 274 272 270 271 274 275 277 279 280 280 280 281 282 284 286 287 289 290 291 292 293 293 293 293 293 294 295 294 294 296 298 301 303 304 305 305 306 307 309 310 310 309 309 309 310 309 311 311 310 315 318 313 310 309 313 322 321 317 317 318 314 310 309 309 307 307 308 309 309
257 258 258 258 259 260 261 262 264 265 266 268 269 269 270 272 272 272 272 272 272 273 275 275 276 278 279 279 280 280 281 282 283 285 287 288 290 291 292 292 292 292 292 293 294 294 293 294 295 296 300 301 302 303 304 305 306 308 309 308 308 308 309 309 309 311 311 310 314 315 312 310 308 312 321 317 315 318 318 314 312 311 308 307 309 311 311 313
256 257 258 259 260 260 261 262 263 264 266 267 268 269 270 270 271 271 270 270 273 277 278 277 278 278 279 279 280 280 281 282 284 285 287 288 290 292 292 292 291 292 292 293 293 293 292 293 294 295 298 299 301 302 302 303 305 307 308 307 308 307 308 308 308 310 309 310 314 313 312 310 308 314 319 313 316 319 318 317 315 312 309 310 313 313 313 317
256 257 257 258 259 261 262 263 263 264 265 266 267 268 268 269 269 268 269 271 275 277 277 279 279 279 279 280 280 280 282 283 284 285 286 288 290 291 291 291 290 291 292 292 292 292 291 292 292 294 296 298 299 300 301 303 305 307 308 308 308 308 308 307 308 310 309 311 314 312 312 310 309 315 316 312 317 320 318 319 316 312 312 314 315 314 316 319
256 257 258 258 259 260 261 263 263 264 265 266 267 268 268 268 267 266 269 273 275 276 278 280 280 281 281 280 280 281 282 283 283 284 285 287 289 290 290 289 289 291 291 292 290 289 289 290 290 293 295 297 298 299 300 302 304 306 307 308 308 308 308 307 308 310 310 313 314 312 311 310 310 314 312 312 320 320 319 319 314 312 314 315 314 315 318 320
257 258 258 258 259 261 262 262 263 264 265 266 266 267 267 267 266 267 270 273 275 278 280 281 281 282 282 281 281 282 282 282 282 283 285 286 287 289 289 287 288 290 291 292 291 289 289 288 289 291 293 294 296 297 299 301 303 305 306 307 307 308 308 308 309 310 311 313 313 311 310 309 311 313 311 314 320 320 320 317 312 312 315 315 315 317 320 320
260 260 260 260 261 261 262 262 263 264 265 265 266 266 265 265 266 269 271 273 275 277 279 280 280 280 279 280 281 281 282 282 283 284 285 286 287 288 287 286 288 289 290 291 291 291 290 289 290 291 292 293 294 295 297 299 301 303 304 305 306 309 308 308 310 310 311 312 310 309 309 308 311 310 310 316 320 320 320 315 312 316 316 315 316 319 320 320
261 262 262 262 262 262 263 263 264 264 265 265 265 265 264 265 268 271 272 273 274 275 277 278 278 278 278 279 280 280 281 282 283 284 285 286 287 287 286 288 289 289 290 290 289 289 289 290 291 292 293 294 294 295 297 299 302 303 304 306 308 309 308 308 310 309 310 310 309 309 308 307 309 308 310 317 320 320 318 314 316 318 316 316 318 319 320 320
261 262 263 263 263 263 263 263 264 264 264 265 264 264 264 266 269 271 272 273 274 275 276 276 277 277 278 279 280 280 281 282 283 284 286 287 286 286 287 289 290 290 290 289 288 288 288 289 291 292 293 293 294 296 297 299 302 302 303 306 308 307 307 308 309 309 310 308 308 308 306 306 308 309 312 317 320 319 315 315 318 318 316 316 317 319 320 320
260 261 262 262 262 262 262 263 264 264 264 264 264 264 265 267 268 270 272 273 274 275 275 275 276 277 278 279 280 281 282 283 284 285 286 286 286 287 289 289 289 290 289 289 288 287 287 288 289 291 292 293 294 295 297 300 300 301 303 306 306 307 308 308 307 308 309 307 308 307 305 307 309 309 313 317 318 317 314 315 318 316 315 316 317 318 319 319
259 260 260 260 261 261 262 262 262 263 264 264 265 266 267 268 269 271 273 274 274 274 274 274 275 277 278 279 280 281 282 283 285 285 286 286 286 288 290 290 290 290 289 288 287 287 288 287 288 289 291 291 292 294 298 299 299 300 303 305 305 306 306 306 305 307 307 307 308 306 304 308 309 308 313 317 316 314 313 315 316 314 313 314 316 318 318 318
258 258 259 260 260 260 260 261 261 262 262 263 265 266 268 269 271 272 273 273 273 274 274 274 275 276 277 278 280 281 282 283 284 285 285 285 286 288 290 290 291 290 289 288 288 288 288 288 288 289 289 290 292 295 297 297 298 301 303 303 304 304 304 304 304 306 306 306 307 304 303 308 309 309 314 315 313 313 312 315 314 311 312 315 316 317 317 317
258 258 258 259 260 260 260 260 260 260 261 263 264 266 267 269 271 272 272 272 272 273 274 274 275 275 277 278 279 280 281 282 283 283 283 284 286 288 289 289 289 289 288 288 288 288 288 288 288 288 289 290 293 295 295 296 298 300 302 302 303 303 303 303 304 305 305 305 305 304 303 307 309 311 313 313 312 312 312 313 311 309 312 315 315 316 316 315
258 259 259 259 260 261 260 260 260 261 262 263 264 265 267 268 270 270 270 271 271 272 273 274 275 276 277 277 278 279 280 281 281 281 281 283 285 287 288 288 287 287 288 288 287 287 288 287 287 287 289 291 292 293 294 296 298 299 300 301 301 302 303 303 303 303 303 303 303 302 302 306 311 313 313 311 311 311 312 311 308 310 313 314 314 315 314 312
259 260 260 260 260 261 261 261 261 262 262 263 264 265 267 268 269 269 270 270 270 271 272 274 275 276 276 277 278 278 279 279 279 280 281 284 286 286 286 286 286 287 287 287 287 287 287 286 287 288 290 290 292 293 294 296 297 299 300 300 301 302 303 302 302 302 302 301 301 301 300 304 313 314 310 310 311 312 311 308 308 310 311 312 313 312 310 309
259 259 260 260 260 260 260 260 261 262 263 265 266 266 267 268 268 269 270 270 270 271 272 273 274 274 275 276 277 277 277 277 278 280 283 285 286 285 285 285 286 286 286 286 286 286 285 286 287 288 289 290 292 293 294 296 297 298 298 300 301 302 302 301 300 300 300 299 300 300 297 302 314 312 308 310 311 311 310 307 307 309 310 312 311 309 308 307
258 259 259 259 259 259 260 260 262 263 264 265 266 266 266 267 268 269 270 271 271 272 272 272 273 273 274 275 275 275 276 277 279 282 283 284 284 284 285 285 285 285 285 286 285 285 285 286 287 288 289 291 292 294 295 296 296 296 298 300 301 301 301 300 299 299 299 299 301 298 296 305 313 308 306 310 310 309 308 305 307 309 311 311 308 307 307 306
258 258 259 259 260 260 260 261 262 263 264 264 265 265 266 266 268 270 271 271 271 271 271 271 272 273 273 273 273 274 276 278 281 281 281 282 282 283 284 284 284 285 285 285 284 284 284 285 286 288 289 290 292 294 295 295 295 296 298 300 300 301 300 299 299 299 299 300 298 295 297 305 308 305 306 308 308 308 305 304 307 310 309 308 306 306 306 305
259 259 259 259 259 260 261 262 262 263 263 264 264 265 266 267 269 269 269 269 269 269 270 271 271 272 272 273 274 276 277 279 280 280 280 280 281 282 282 283 283 284 283 283 283 283 284 284 286 287 287 288 291 292 292 291 292 295 297 298 298 298 297 297 297 297 299 299 295 295 300 303 305 305 306 307 307 304 303 305 309 309 307 306 306 306 305 304
261 261 262 263 262 261 261 262 262 263 263 264 264 265 267 268 268 267 267 267 268 269 269 270 271 271 273 275 276 277 278 278 278 278 279 279 280 281 281 281 281 281 281 282 282 283 283 284 285 286 286 288 291 291 290 290 291 293 294 295 295 295 295 297 297 297 299 296 293 298 302 301 303 306 306 306 304 301 304 308 309 307 306 306 305 306 305 304
263 263 264 265 264 263 264 264 265 265 264 264 264 264 265 265 266 267 268 268 268 269 269 270 272 274 276 276 276 277 278 278 277 278 279 279 279 279 279 279 279 279 280 280 281 282 282 283 285 286 286 289 291 291 290 291 292 292 293 294 293 293 296 299 297 296 295 291 292 300 300 297 303 308 306 303 301 302 307 308 306 305 305 305 305 305 305 305
264 263 263 265 266 267 267 267 267 266 265 265 264 263 264 265 267 268 268 269 269 270 271 273 275 277 277 277 276 277 277 278 279 279 279 278 278 278 277 277 277 278 278 279 280 281 281 283 285 286 286 288 289 289 290 291 292 293 293 292 293 295 298 298 295 294 291 289 294 299 296 298 306 309 303 300 301 305 307 305 304 305 304 304 306 306 306 307
264 264 263 264 265 266 266 266 266 266 267 266 265 265 266 266 267 268 269 270 271 273 273 274 276 277 277 277 276 277 279 281 280 279 279 278 277 277 277 277 278 278 279 279 279 280 281 283 285 286 285 286 288 289 290 292 293 291 289 292 296 298 297 294 293 293 291 291 295 296 294 300 307 304 298 300 304 305 304 303 304 304 304 306 307 307 307 306
261 262 263 263 263 263 262 263 264 265 265 266 267 267 267 267 269 271 272 272 272 272 272 273 274 276 276 276 276 279 282 281 279 279 278 277 276 276 277 278 279 280 281 281 280 280 282 284 286 286 285 287 288 288 288 291 291 289 290 298 300 296 293 292 293 293 291 292 293 293 296 302 304 300 299 302 303 302 302 303 303 304 306 308 308 307 307 306
259 261 263 264 263 262 261 262 263 263 263 266 268 268 268 268 270 271 271 270 270 271 272 273 274 275 275 276 277 281 283 281 279 279 278 277 278 279 279 280 280 281 281 280 280 281 283 285 287 287 287 289 289 288 289 290 289 290 296 301 296 292 293 293 292 291 291 292 293 294 298 302 302 301 301 301 301 300 301 301 303 306 308 308 307 307 306 306
Height
5911 5911 5911 5912 5912 5912 5912 5912 5912 5912 5911 5911 5911 5910 5910 5910 5909 5909 5908 5907 5906 5905 5904 5903 5902 5901 5899 5899 5898 5897 5896 5894 5893 5892 5891 5889 5888 5887 5885 5884 5883 5882 5881 5880 5878 5877 5875 5874 5873 5871 5870 5869 5867 5867 5866 5864 5863 5862 5861 5859 5858 5856 5855 5854 5853 5852 5851 5850 5849 5849 5848 5847 5847 5848 5847 5846 5845 5843 5840 5839 5837 5836 5835 5834 5832 5831 5830 5829
5909 5909 5910 5910 5910 5910 5911 5911 5911 5910 5910 5910 5909 5909 5909 5908 5908 5907 5907 5906 5906 5904 5903 5902 5901 5900 5899 5898 5897 5896 5895 5894 5893 5891 5889 5888 5887 5886 5885 5883 5882 5881 5880 5878 5877 5875 5874 5873 5871 5870 5868 5867 5865 5865 5864 5863 5861 5860 5859 5857 5856 5855 5854 5853 5851 5850 5849 5847 5847 5847 5846 5844 5844 5845 5844 5843 5842 5840 5838 5836 5835 5834 5832 5831 5829 5828 5827 5825
5907 5908 5908 5908 5908 5909 5909 5909 5909 5909 5909 5908 5908 5908 5907 5907 5907 5906 5906 5905 5904 5903 5902 5901 5900 5899 5898 5897 5895 5894 5894 5893 5891 5890 5888 5887 5886 5885 5883 5882 5881 5880 5879 5877 5875 5874 5873 5872 5871 5869 5868 5866 5864 5863 5862 5861 5859 5858 5856 5855 5854 5853 5852 5851 5850 5848 5847 5845 5844 5844 5844 5842 5841 5841 5840 5839 5838 5837 5835 5834 5832 5831 5829 5828 5827 5825 5824 5822
5905 5906 5906 5906 5906 5907 5907 5907 5907 5907 5907 5907 5906 5906 5906 5905 5905 5904 5904 5903 5903 5902 5901 5899 5898 5897 5896 5895 5894 5893 5892 5891 5890 5888 5887 5886 5885 5884 5883 5881 5880 5879 5878 5876 5874 5873 5871 5870 5869 5868 5867 5865 5863 5862 5861 5859 5858 5856 5854 5853 5852 5851 5850 5849 5848 5846 5844 5843 5842 5841 5841 5840 5838 5836 5836 5836 5835 5834 5832 5831 5830 5828 5826 5825 5824 5822 5820 5819
5903 5903 5904 5904 5904 5904 5905 5905 5905 5905 5905 5905 5905 5904 5904 5904 5903 5903 5902 5902 5901 5900 5899 5898 5897 5896 5895 5894 5893 5892 5891 5889 5888 5887 5886 5885 5884 5883 5882 5880 5879 5878 5876 5875 5873 5872 5870 5868 5867 5866 5865 5864 5862 5860 5859 5858 5856 5854 5852 5851 5850 5848 5847 5847 5845 5843 5842 5841 5839 5838 5837 5837 5835 5833 5833 5833 5832 5831 5830 5829 5827 5825 5823 5822 5820 5819 5817 5815
5901 5901 5901 5902 5902 5902 5903 5903 5903 5903 5904 5903 5903 5903 5902 5902 5901 5901 5901 5900 5899 5898 5897 5896 5895 5894 5893 5892 5891 5890 5889 5888 5887 5886 5885 5884 5883 5882 5880 5879 5878 5877 5875 5873 5872 5870 5868 5867 5866 5864 5863 5862 5861 5860 5858 5857 5855 5853 5851 5849 5848 5847 5845 5844 5842 5841 5839 5838 5836 5835 5835 5834 5833 5831 5831 5831 5830 5828 5827 5825 5824 5822 5820 5818 5817 5815 5813 5812
5898 5899 5899 5899 5900 5900 5900 5901 5901 5901 5901 5902 5901 5901 5900 5900 5899 5899 5899 5898 5897 5897 5896 5894 5893 5892 5891 5890 5889 5888 5887 5886 5885 5884 5883 5882 5881 5880 5879 5878 5876 5875 5874 5872 5870 5868 5867 5866 5864 5863 5862 5861 5860 5859 5858 5856 5854 5852 5850 5848 5846 5845 5843 5842 5840 5838 5837 5835 5834 5832 5832 5832 5830 5829 5829 5828 5827 5826 5824 5823 5821 5819 5817 5815 5813 5811 5810 5808
5896 5896 5897 5897 5897 5898 5898 5898 5899 5899 5899 5899 5899 5899 5899 5898 5897 5897 5896 5896 5895 5895 5894 5893 5892 5891 5890 5888 5887 5887 5886 5885 5884 5883 5882 5881 5880 5879 5877 5876 5875 5873 5872 5870 5869 5867 5866 5865 5863 5862 5860 5859 5858 5857 5856 5855 5853 5851 5849 5846 5844 5843 5841 5840 5838 5836 5835 5833 5832 5830 5830 5829 5828 5827 5827 5826 5824 5823 5822 5820 5818 5816 5814 5812 5810 5808 5807 5805
5894 5894 5894 5894 5895 5895 5896 5896 5896 5897 5897 5897 5897 5897 5897 5896 5895 5895 5894 5894 5893 5893 5892 5891 5890 5889 5888 5887 5885 5885 5884 5883 5882 5881 5880 5879 5878 5877 5876 5874 5873 5871 5870 5868 5867 5866 5865 5863 5862 5860 5859 5857 5856 5855 5853 5852 5851 5849 5847 5845 5843 5841 5839 5838 5836 5834 5833 5831 5829 5828 5828 5827 5826 5825 5824 5822 5821 5820 5819 5818 5816 5813 5811 5809 5807 5805 5803 5801
5891 5892 5892 5892 5892 5892 5893 5893 5894 5894 5894 5894 5894 5894 5894 5894 5893 5893 5892 5891 5891 5891 5890 5889 5889 5888 5887 5885 5884 5883 5882 5881 5880 5879 5878 5877 5876 5875 5874 5872 5871 5869 5868 5867 5865 5864 5863 5862 5860 5859 5857 5856 5854 5852 5851 5850 5849 5847 5846 5844 5842 5840 5838 5836 5834 5832 5830 5828 5827 5826 5826 5825 5823 5822 5820 5819 5818 5817 5817 5815 5813 5811 5808 5806 5804 5801 5799 5797
5889 5889 5889 5889 5890 5890 5890 5890 5891 5891 5891 5892 5892 5892 5891 5891 5891 5890 5890 5889 5888 5888 5888 5887 5886 5885 5885 5884 5883 5881 5880 5879 5878 5877 5876 5875 5874 5873 5872 5871 5869 5868 5866 5865 5863 5862 5861 5860 5859 5857 5855 5854 5852 5850 5849 5848 5846 5845 5844 5842 5840 5838 5836 5834 5832 5830 5828 5826 5824 5823 5823 5822 5820 5818 5817 5816 5815 5814 5814 5812 5810 5807 5805 5803 5800 5797 5795 5793
5886 5886 5887 5887 5887 5887 5887 5888 5888 5888 5888 5889 5889 5889 5888 5888 5888 5888 5887 5887 5886 5885 5885 5885 5884 5883 5882 5882 5881 5880 5879 5877 5876 5875 5874 5873 5872 5871 5870 5869 5867 5865 5864 5863 5861 5860 5859 5858 5857 5856 5854 5852 5850 5848 5847 5846 5844 5843 5842 5840 5839 5836 5834 5832 5830 5828 5826 5824 5822 5820 5820 5820 5817 5815 5813 5812 5811 5810 5809 5807 5805 5803 5801 5799 5797 5794 5792 5789
5883 5883 5884 5884 5884 5885 5885 5885 5885 5885 5885 5886 5886 5886 5885 5885 5885 5885 5885 5884 5884 5883 5882 5882 5881 5881 5880 5879 5878 5877 5876 5875 5874 5873 5872 5871 5870 5869 5868 5866 5865 5863 5862 5861 5859 5858 5856 5856 5855 5853 5852 5850 5848 5846 5845 5843 5842 5841 5839 5838 5837 5835 5833 5830 5828 5826 5824 5821 5819 5816 5816 5817 5813 5810 5809 5808 5807 5806 5804 5803 5801 5799 5797 5795 5793 5791 5788 5785
5879 5880 5881 5881 5882 5882 5882 5882 5882 5882 5882 5883 5883 5883 5883 5882 5882 5882 5881 5881 5881 5880 5880 5879 5879 5878 5878 5877 5876 5875 5874 5873 5872 5870 5869 5868 5867 5867 5866 5864 5863 5862 5860 5859 5857 5855 5854 5853 5852 5851 5849 5847 5845 5844 5842 5841 5840 5838 5837 5835 5834 5833 5831 5829 5826 5824 5821 5819 5817 5813 5812 5814 5811 5807 5805 5804 5803 5802 5800 5798 5796 5794 5792 5790 5788 5785 5783 5780
5875 5876 5877 5878 5878 5879 5879 5879 5879 5879 5879 5879 5879 5879 5879 5879 5878 5878 5878 5878 5878 5877 5877 5876 5876 5876 5875 5874 5873 5872 5871 5871 5870 5868 5867 5866 5865 5864 5863 5862 5861 5859 5858 5856 5855 5853 5851 5850 5849 5848 5846 5845 5843 5842 5840 5838 5837 5835 5834 5832 5831 5829 5828 5826 5823 5821 5819 5817 5816 5811 5809 5810 5808 5804 5803 5801 5800 5798 5796 5794 5792 5789 5787 5784 5782 5780 5777 5774
5871 5872 5873 5874 5875 5875 5876 5876 5876 5877 5876 5876 5876 5876 5876 5876 5875 5874 5874 5874 5874 5874 5874 5873 5873 5873 5873 5872 5871 5870 5869 5868 5867 5866 5865 5863 5862 5861 5860 5859 5858 5857 5855 5854 5853 5851 5849 5847 5846 5845 5843 5842 5840 5839 5838 5836 5834 5832 5831 5829 5827 5825 5823 5821 5819 5818 5816 5815 5813 5809 5806 5806 5804 5801 5800 5798 5797 5795 5792 5790 5787 5784 5782 5779 5777 5774 5772 5769
5868 5869 5869 5870 5871 5871 5872 5872 5873 5873 5873 5873 5873 5872 5872 5872 5872 5871 5871 5871 5871 5870 5870 5870 5870 5870 5870 5870 5869 5867 5866 5865 5864 5863 5862 5861 5859 5858 5857 5856 5855 5854 5853 5851 5850 5848 5846 5844 5843 5841 5840 5839 5837 5836 5835 5834 5832 5830 5828 5827 5825 5822 5819 5817 5814 5812 5811 5810 5809 5805 5801 5801 5799 5796 5795 5793 5791 5789 5787 5785 5782 5780 5777 5775 5773 5770 5767 5764
5864 5865 5865 5866 5866 5867 5868 5868 5869 5869 5869 5869 5869 5869 5868 5869 5868 5868 5867 5867 5867 5867 5867 5867 5866 5867 5867 5866 5866 5865 5863 5862 5861 5860 5859 5858 5856 5855 5854 5853 5852 5851 5849 5848 5847 5846 5843 5841 5840 5838 5836 5835 5834 5832 5831 5830 5829 5827 5825 5823 5821 5820 5817 5813 5809 5807 5804 5803 5802 5798 5795 5795 5793 5790 5789 5787 5785 5783 5781 5778 5776 5775 5773 5770 5768 5764 5762 5759
5860 5861 5862 5862 5862 5863 5864 5864 5865 5865 5866 5865 5865 5865 5865 5865 5865 5864 5864 5864 5863 5863 5863 5863 5863 5863 5863 5863 5862 5861 5860 5859 5858 5857 5856 5854 5853 5852 5851 5850 5848 5847 5846 5845 5844 5843 5841 5839 5837 5835 5833 5832 5830 5829 5827 5826 5824 5823 5821 5819 5817 5815 5814 5811 5806 5803 5800 5798 5798 5793 5789 5790 5788 5785 5784 5781 5780 5778 5775 5773 5771 5769 5767 5764 5761 5758 5756 5753
5856 5857 5857 5858 5858 5859 5859 5860 5860 5861 5861 5861 5861 5861 5861 5861 5861 5861 5861 5860 5860 5859 5859 5859 5859 5859 5859 5859 5859 5858 5857 5856 5855 5854 5853 5851 5850 5849 5848 5846 5845 5844 5843 5842 5840 5840 5838 5835 5834 5833 5831 5829 5827 5825 5824 5822 5821 5819 5817 5815 5813 5809 5809 5807 5803 5800 5797 5794 5794 5791 5786 5787 5786 5783 5781 5778 5776 5774 5771 5768 5765 5763 5760 5757 5755 5752 5749 5747
5853 5853 5853 5854 5854 5854 5855 5856 5856 5856 5857 5857 5857 5857 5857 5857 5857 5857 5857 5857 5856 5855 5856 5855 5855 5855 5855 5855 5854 5854 5853 5852 5851 5850 5849 5848 5846 5845 5844 5843 5842 5841 5839 5838 5837 5836 5834 5832 5830 5829 5827 5825 5823 5821 5820 5818 5817 5815 5812 5811 5809 5805 5803 5803 5799 5796 5793 5790 5790 5787 5783 5782 5782 5780 5777 5774 5771 5769 5765 5762 5760 5757 5754 5751 5749 5746 5743 5741
5849 5849 5849 5849 5850 5850 5851 5851 5851 5852 5852 5853 5853 5853 5853 5853 5853 5852 5853 5854 5853 5852 5852 5851 5851 5851 5851 5851 5850 5849 5849 5848 5847 5846 5845 5844 5843 5842 5841 5839 5838 5837 5836 5834 5833 5832 5830 5827 5826 5825 5823 5821 5819 5817 5815 5814 5812 5810 5808 5805 5804 5801 5798 5797 5795 5791 5788 5785 5784 5783 5778 5777 5776 5774 5772 5769 5766 5763 5759 5756 5754 5752 5749 5746 5743 5741 5739 5736
5845 5845 5845 5846 5846 5846 5846 5847 5847 5847 5848 5848 5848 5848 5848 5848 5848 5848 5848 5849 5850 5850 5848 5848 5847 5847 5847 5846 5846 5845 5844 5844 5843 5842 5841 5840 5839 5838 5837 5835 5834 5833 5832 5831 5829 5828 5826 5823 5822 5821 5819 5818 5815 5813 5810 5809 5808 5806 5804 5801 5799 5797 5793 5791 5789 5785 5783 5780 5778 5776 5772 5770 5770 5769 5767 5764 5760 5758 5754 5751 5750 5747 5744 5742 5739 5736 5734 5731
5841 5841 5841 5842 5842 5842 5843 5843 5843 5842 5843 5843 5843 5843 5843 5843 5843 5843 5843 5842 5845 5847 5845 5844 5844 5844 5844 5843 5842 5841 5840 5839 5839 5838 5837 5836 5835 5834 5833 5831 5830 5829 5828 5826 5825 5825 5823 5820 5818 5817 5815 5814 5811 5809 5806 5804 5804 5802 5800 5797 5795 5793 5789 5786 5783 5779 5776 5774 5772 5770 5765 5761 5765 5767 5764 5760 5757 5753 5749 5747 5745 5742 5739 5736 5733 5731 5728 5724
5837 5837 5837 5838 5837 5838 5838 5838 5838 5838 5838 5838 5839 5838 5838 5838 5837 5838 5837 5835 5839 5843 5842 5840 5840 5841 5840 5839 5838 5837 5835 5835 5835 5834 5833 5832 5831 5830 5828 5827 5826 5824 5823 5822 5821 5821 5819 5816 5814 5813 5811 5810 5807 5805 5802 5799 5798 5798 5796 5793 5790 5787 5785 5782 5778 5774 5770 5767 5767 5766 5758 5750 5755 5762 5761 5757 5754 5749 5744 5742 5739 5735 5732 5729 5727 5724 5721 5717
5832 5832 5833 5833 5833 5833 5833 5833 5834 5833 5833 5833 5833 5833 5833 5833 5832 5832 5831 5828 5831 5837 5838 5836 5837 5837 5836 5836 5834 5833 5832 5832 5831 5830 5829 5828 5827 5825 5824 5823 5821 5819 5818 5817 5816 5817 5815 5812 5811 5808 5807 5805 5803 5800 5798 5794 5792 5792 5791 5788 5785 5782 5779 5777 5774 5770 5765 5761 5762 5762 5753 5742 5743 5753 5755 5751 5747 5743 5739 5737 5733 5729 5726 5723 5720 5717 5714 5711
5827 5827 5828 5828 5828 5828 5828 5829 5829 5828 5828 5828 5828 5828 5828 5828 5827 5827 5826 5821 5822 5830 5833 5832 5833 5832 5832 5832 5830 5829 5828 5827 5827 5826 5825 5824 5822 5821 5819 5818 5817 5815 5814 5812 5811 5812 5810 5807 5806 5804 5802 5801 5798 5796 5793 5790 5788 5786 5785 5782 5780 5777 5774 5772 5769 5765 5761 5756 5757 5758 5749 5738 5735 5743 5749 5745 5740 5737 5734 5731 5727 5723 5720 5717 5714 5711 5708 5704
5822 5822 5823 5823 5823 5823 5823 5824 5824 5824 5823 5823 5823 5823 5822 5823 5822 5822 5821 5814 5813 5823 5828 5828 5829 5828 5828 5826 5825 5824 5823 5823 5822 5821 5821 5819 5818 5817 5815 5814 5812 5810 5809 5807 5806 5807 5804 5802 5801 5799 5798 5796 5793 5791 5788 5786 5783 5781 5780 5777 5774 5771 5769 5767 5763 5760 5755 5749 5751 5753 5745 5735 5730 5735 5742 5738 5734 5732 5729 5725 5721 5717 5714 5710 5708 5705 5701 5697
5816 5816 5817 5818 5818 5818 5818 5818 5819 5818 5818 5818 5818 5818 5817 5818 5817 5816 5814 5808 5807 5817 5822 5823 5824 5823 5822 5821 5820 5819 5818 5818 5818 5816 5816 5814 5813 5813 5811 5809 5807 5805 5805 5803 5802 5801 5798 5797 5796 5794 5793 5791 5788 5786 5783 5780 5778 5776 5775 5772 5769 5765 5763 5761 5756 5755 5750 5744 5745 5745 5739 5731 5724 5730 5736 5731 5728 5726 5722 5719 5715 5711 5707 5703 5701 5698 5693 5690
5810 5811 5811 5812 5812 5812 5812 5813 5813 5813 5813 5813 5812 5812 5812 5811 5811 5809 5804 5802 5806 5811 5814 5817 5818 5817 5816 5815 5814 5813 5813 5813 5812 5811 5810 5809 5808 5807 5806 5805 5802 5801 5800 5798 5797 5796 5793 5792 5790 5789 5787 5785 5783 5780 5777 5775 5772 5771 5769 5766 5763 5759 5757 5755 5751 5749 5744 5739 5740 5737 5732 5727 5718 5723 5729 5724 5723 5720 5715 5712 5708 5703 5699 5695 5693 5689 5685 5683
5804 5805 5805 5806 5806 5806 5807 5807 5807 5807 5807 5807 5806 5806 5805 5804 5803 5799 5796 5801 5805 5804 5806 5810 5810 5810 5810 5809 5808 5808 5808 5807 5807 5806 5805 5804 5803 5802 5801 5799 5797 5795 5794 5794 5793 5790 5788 5786 5785 5784 5782 5780 5777 5774 5771 5769 5766 5765 5763 5759 5756 5753 5751 5748 5745 5744 5737 5734 5734 5728 5725 5721 5713 5715 5718 5716 5716 5712 5706 5704 5700 5695 5691 5688 5685 5681 5678 5676
5798 5798 5799 5799 5800 5800 5801 5800 5801 5801 5800 5801 5800 5799 5798 5796 5791 5790 5795 5800 5800 5798 5801 5803 5802 5803 5803 5802 5802 5802 5802 5802 5801 5800 5799 5798 5797 5796 5796 5794 5792 5790 5788 5788 5787 5785 5783 5782 5780 5778 5777 5774 5771 5768 5765 5762 5761 5759 5757 5753 5750 5746 5743 5740 5738 5736 5731 5728 5726 5719 5717 5713 5708 5709 5709 5708 5708 5703 5698 5696 5691 5686 5684 5681 5677 5674 5672 5669
5792 5792 5792 5793 5794 5795 5794 5794 5794 5794 5794 5794 5793 5792 5791 5784 5780 5786 5795 5797 5795 5793 5795 5795 5795 5796 5794 5794 5794 5795 5795 5795 5794 5794 5793 5792 5791 5790 5789 5788 5787 5785 5783 5781 5779 5778 5777 5776 5775 5774 5772 5770 5767 5763 5760 5757 5755 5753 5752 5749 5745 5741 5736 5733 5731 5727 5723 5723 5719 5713 5709 5705 5703 5703 5701 5702 5702 5696 5692 5689 5683 5680 5678 5674 5670 5667 5665 5661
5785 5785 5785 5787 5789 5788 5787 5787 5787 5787 5787 5786 5785 5784 5780 5773 5774 5784 5791 5792 5792 5790 5788 5788 5788 5787 5786 5786 5787 5787 5787 5787 5787 5787 5786 5785 5784 5784 5783 5783 5782 5780 5778 5776 5773 5770 5767 5766 5768 5767 5766 5764 5762 5758 5755 5753 5750 5748 5746 5743 5740 5737 5729 5724 5724 5719 5715 5715 5714 5709 5702 5698 5698 5695 5694 5697 5695 5690 5686 5681 5676 5674 5671 5667 5663 5661 5658 5654
5778 5778 5778 5780 5781 5781 5781 5780 5780 5780 5780 5779 5778 5774 5768 5767 5773 5780 5783 5785 5786 5785 5784 5782 5780 5779 5778 5779 5779 5780 5781 5780 5780 5779 5779 5778 5778 5777 5776 5777 5777 5774 5773 5771 5768 5765 5760 5758 5760 5759 5758 5756 5754 5751 5748 5746 5744 5740 5738 5736 5733 5730 5723 5717 5715 5712 5707 5704 5705 5704 5695 5692 5692 5687 5688 5690 5687 5684 5679 5673 5671 5669 5664 5660 5657 5654 5651 5647
5770 5770 5771 5773 5774 5773 5773 5773 5773 5773 5772 5771 5768 5762 5760 5765 5771 5774 5776 5779 5779 5779 5778 5776 5773 5772 5771 5772 5772 5773 5774 5774 5773 5772 5772 5772 5771 5770 5771 5771 5770 5768 5767 5765 5762 5759 5755 5753 5752 5750 5749 5748 5746 5743 5741 5740 5737 5732 5731 5730 5727 5723 5717 5711 5706 5704 5700 5693 5695 5697 5688 5686 5686 5681 5682 5683 5679 5676 5670 5666 5666 5661 5656 5653 5649 5647 5644 5640
5762 5763 5764 5766 5765 5764 5765 5765 5765 5764 5764 5762 5757 5753 5756 5761 5765 5768 5770 5772 5772 5772 5771 5769 5767 5766 5765 5765 5764 5765 5766 5766 5767 5766 5765 5763 5762 5763 5765 5764 5763 5762 5760 5758 5755 5753 5750 5748 5745 5742 5740 5740 5738 5735 5734 5733 5729 5725 5725 5724 5720 5715 5711 5705 5698 5697 5692 5683 5685 5688 5682 5679 5678 5675 5676 5676 5671 5668 5662 5659 5659 5654 5648 5646 5643 5639 5636 5632
5754 5754 5756 5758 5757 5756 5757 5757 5756 5756 5755 5751 5747 5747 5750 5754 5759 5764 5766 5765 5764 5764 5763 5761 5760 5760 5759 5758 5757 5758 5758 5759 5760 5758 5757 5756 5753 5755 5758 5756 5755 5755 5753 5750 5748 5746 5744 5741 5740 5738 5734 5733 5731 5729 5728 5725 5721 5719 5719 5718 5714 5710 5706 5699 5692 5689 5684 5675 5673 5677 5677 5676 5672 5669 5670 5668 5664 5659 5654 5653 5651 5646 5642 5639 5636 5633 5629 5625
5745 5745 5748 5752 5749 5747 5749 5748 5747 5748 5744 5740 5740 5742 5743 5747 5753 5758 5759 5758 5756 5755 5754 5754 5754 5753 5752 5751 5751 5751 5751 5752 5752 5751 5749 5748 5746 5749 5751 5748 5747 5746 5744 5742 5739 5738 5736 5733 5733 5731 5728 5725 5725 5724 5722 5717 5714 5714 5713 5711 5708 5704 5700 5694 5686 5682 5677 5670 5664 5661 5666 5671 5666 5664 5665 5662 5657 5652 5648 5647 5643 5638 5635 5632 5629 5626 5622 5618
5737 5736 5740 5745 5740 5738 5741 5739 5738 5738 5733 5732 5736 5736 5736 5740 5746 5750 5751 5750 5749 5747 5746 5746 5746 5746 5746 5745 5745 5744 5744 5745 5745 5743 5742 5741 5740 5742 5743 5741 5739 5737 5735 5734 5731 5729 5727 5725 5724 5722 5719 5718 5718 5717 5714 5710 5709 5707 5706 5704 5700 5697 5693 5686 5681 5677 5672 5666 5659 5651 5652 5658 5658 5658 5659 5654 5650 5646 5643 5640 5635 5630 5628 5626 5622 5619 5615 5611
5728 5727 5733 5737 5731 5729 5731 5729 5729 5729 5725 5725 5728 5728 5730 5734 5738 5741 5742 5742 5741 5740 5739 5738 5738 5738 5738 5738 5738 5738 5738 5737 5737 5735 5734 5735 5735 5736 5736 5734 5732 5730 5727 5726 5724 5721 5718 5715 5714 5713 5712 5711 5711 5709 5706 5704 5704 5701 5700 5698 5694 5691 5686 5677 5672 5669 5665 5660 5655 5648 5643 5644 5650 5651 5649 5645 5642 5641 5638 5632 5627 5623 5621 5618 5615 5612 5608 5604
5718 5719 5725 5726 5722 5721 5720 5719 5721 5719 5714 5716 5721 5723 5725 5727 5729 5731 5733 5733 5733 5733 5732 5731 5731 5731 5730 5730 5731 5731 5729 5728 5728 5727 5726 5729 5731 5729 5728 5726 5724 5722 5720 5717 5716 5714 5710 5706 5704 5705 5705 5703 5703 5702 5698 5697 5697 5694 5692 5690 5687 5684 5680 5672 5663 5659 5658 5653 5649 5645 5636 5634 5644 5643 5636 5635 5634 5632 5630 5624 5619 5618 5615 5612 5609 5605 5601 5598
5709 5712 5715 5714 5712 5711 5708 5708 5712 5708 5706 5712 5716 5717 5718 5719 5720 5722 5723 5723 5724 5725 5724 5723 5724 5723 5723 5723 5723 5723 5721 5718 5720 5720 5720 5723 5724 5721 5720 5719 5717 5715 5712 5709 5708 5705 5701 5698 5696 5695 5696 5696 5696 5694 5691 5691 5689 5686 5684 5683 5680 5677 5672 5666 5658 5651 5650 5647 5644 5638 5625 5626 5638 5634 5624 5626 5626 5624 5621 5615 5613 5611 5608 5606 5602 5598 5595 5591
5700 5701 5703 5703 5701 5698 5696 5700 5702 5700 5702 5706 5706 5708 5710 5709 5711 5714 5714 5715 5715 5715 5715 5715 5716 5716 5716 5716 5714 5713 5712 5710 5712 5715 5715 5714 5714 5714 5712 5711 5709 5707 5704 5701 5699 5696 5692 5690 5688 5685 5685 5688 5688 5686 5684 5683 5681 5677 5677 5676 5671 5669 5663 5656 5650 5644 5641 5642 5641 5629 5616 5621 5631 5624 5618 5619 5618 5617 5614 5607 5606 5605 5601 5599 5595 5591 5589 5585
5689 5690 5693 5693 5690 5686 5687 5693 5694 5693 5696 5697 5695 5698 5700 5700 5704 5707 5706 5705 5705 5705 5704 5705 5707 5708 5707 5706 5704 5704 5705 5705 5706 5707 5707 5705 5705 5706 5705 5702 5701 5698 5695 5693 5690 5687 5684 5683 5681 5677 5675 5677 5679 5679 5677 5673 5670 5668 5669 5668 5663 5660 5654 5646 5641 5637 5633 5635 5634 5623 5614 5619 5623 5616 5614 5616 5610 5607 5605 5600 5599 5599 5595 5592 5588 5584 5582 5578
5678 5678 5682 5683 5678 5676 5680 5685 5685 5683 5687 5687 5685 5689 5692 5692 5697 5700 5696 5693 5694 5694 5694 5697 5698 5697 5696 5696 5696 5697 5700 5700 5698 5697 5697 5696 5696 5697 5696 5693 5692 5689 5686 5683 5680 5677 5674 5674 5675 5671 5667 5668 5671 5673 5670 5665 5663 5662 5661 5660 5656 5652 5647 5639 5635 5633 5629 5624 5623 5622 5616 5613 5615 5611 5608 5609 5605 5597 5595 5593 5591 5589 5587 5583 5580 5577 5574 5571
5665 5668 5673 5673 5667 5667 5673 5676 5674 5674 5678 5677 5676 5682 5686 5685 5687 5687 5683 5683 5685 5685 5685 5687 5688 5687 5688 5689 5688 5689 5692 5692 5688 5687 5688 5688 5688 5687 5686 5685 5683 5679 5677 5674 5671 5668 5664 5664 5668 5663 5657 5660 5663 5662 5659 5656 5656 5656 5655 5653 5648 5642 5639 5635 5630 5629 5626 5613 5609 5619 5617 5605 5605 5608 5601 5598 5596 5589 5586 5587 5583 5580 5578 5575 5572 5570 5567 5564
5655 5660 5665 5661 5655 5656 5663 5667 5667 5666 5667 5667 5668 5673 5674 5674 5675 5674 5674 5675 5676 5677 5676 5677 5680 5681 5681 5681 5679 5679 5683 5682 5677 5678 5679 5679 5679 5677 5676 5676 5674 5670 5668 5665 5662 5660 5654 5655 5660 5655 5648 5652 5655 5652 5648 5646 5645 5647 5649 5647 5639 5633 5632 5629 5624 5623 5619 5605 5600 5611 5612 5600 5600 5604 5595 5587 5584 5581 5579 5579 5576 5574 5571 5568 5566 5564 5561 5558
5647 5650 5653 5649 5645 5648 5654 5657 5657 5654 5655 5656 5656 5660 5664 5666 5666 5665 5665 5665 5665 5669 5669 5668 5674 5677 5672 5671 5670 5669 5673 5672 5668 5670 5671 5668 5668 5667 5665 5666 5664 5661 5660 5657 5654 5651 5645 5645 5651 5648 5640 5644 5648 5644 5640 5637 5635 5637 5640 5638 5632 5628 5625 5620 5617 5617 5611 5600 5598 5601 5598 5596 5602 5599 5588 5580 5576 5574 5573 5570 5568 5567 5564 5561 5560 5557 5554 5550
5639 5640 5642 5639 5635 5640 5644 5644 5643 5641 5645 5645 5642 5650 5657 5655 5655 5657 5655 5655 5658 5662 5662 5660 5666 5668 5661 5660 5659 5658 5665 5665 5658 5661 5661 5656 5656 5656 5654 5655 5655 5652 5650 5648 5646 5642 5637 5636 5642 5639 5630 5635 5641 5636 5630 5629 5627 5626 5630 5631 5627 5623 5618 5611 5608 5609 5603 5595 5596 5592 5584 5590 5599 5593 5581 5576 5572 5568 5566 5563 5562 5560 5557 5555 5553 5550 5547 5543
5632 5628 5630 5626 5624 5630 5631 5630 5632 5630 5632 5634 5634 5643 5647 5644 5649 5651 5644 5646 5651 5651 5651 5653 5658 5657 5648 5647 5649 5652 5658 5655 5646 5649 5650 5644 5644 5646 5643 5644 5645 5642 5641 5640 5636 5633 5629 5627 5632 5629 5620 5624 5632 5628 5622 5622 5617 5615 5622 5626 5621 5614 5609 5605 5602 5602 5596 5589 5587 5584 5578 5583 5589 5582 5575 5573 5568 5563 5561 5558 5555 5553 5551 5549 5546 5542 5539 5535
5621 5614 5617 5616 5612 5616 5619 5620 5621 5617 5620 5628 5631 5634 5636 5636 5643 5640 5631 5635 5642 5640 5641 5645 5647 5643 5635 5637 5644 5648 5648 5641 5635 5636 5635 5631 5632 5634 5632 5633 5634 5633 5632 5630 5627 5626 5623 5620 5621 5619 5611 5614 5621 5618 5614 5613 5607 5608 5616 5617 5610 5605 5601 5599 5597 5595 5591 5583 5577 5576 5575 5577 5576 5571 5568 5567 5563 5560 5558 5554 5550 5547 5545 5542 5539 5535 5531 5527